Le nostre stazioni meteo in Italia

Pubblicità
Il mio iltempo24.it
Monte Terminillo, Italia (16219): Temperatura & dewpoint: 20.08.2019 12:00:00 - 26.08.2019 12:00:00 (CEST)Monte Terminillo, Italia (16219): velocità del vento: 20.08.2019 12:00:00 - 26.08.2019 12:00:00 (CEST)Monte Terminillo, Italia (16219): direzione del vento: 20.08.2019 12:00:00 - 26.08.2019 12:00:00 (CEST)Monte Terminillo, Italia (16219): ore di luce: 20.08.2019 12:00:00 - 26.08.2019 12:00:00 (CEST)
Data & Tempo tt [°C] td [°C] ff [km/h] ff [kn] dd sd [min]
26.08.2019 12:00:00 - - 0 0 N -
26.08.2019 11:00:00 - - 0 0 N -
26.08.2019 10:00:00 - - 0 0 N -
26.08.2019 09:00:00 - - 0 0 N -
26.08.2019 08:00:00 - - 0 0 N -
26.08.2019 07:00:00 - - 0 0 N -
26.08.2019 06:00:00 - - 0 0 N -
26.08.2019 05:00:00 - - 0 0 N -
26.08.2019 04:00:00 - - 0 0 N -
26.08.2019 03:00:00 - - 0 0 N -
26.08.2019 02:00:00 - - 0 0 N -
26.08.2019 01:00:00 - - 0 0 N -
26.08.2019 00:00:00 - - 0 0 N -
25.08.2019 23:00:00 - - 0 0 N -
25.08.2019 22:00:00 - - 0 0 N -
25.08.2019 21:00:00 - - 0 0 N -
25.08.2019 20:00:00 - - 0 0 N -
25.08.2019 19:00:00 - - 0 0 N -
25.08.2019 18:00:00 - - 0 0 N -
25.08.2019 17:00:00 - - 0 0 N -
25.08.2019 16:00:00 - - 0 0 N -
25.08.2019 15:00:00 - - 0 0 N -
25.08.2019 14:00:00 - - 0 0 N -
25.08.2019 13:00:00 - - 0 0 N -
25.08.2019 12:00:00 - - 0 0 N -
25.08.2019 11:00:00 - - 0 0 N -
25.08.2019 10:00:00 - - 0 0 N -
25.08.2019 09:00:00 - - 0 0 N -
25.08.2019 08:00:00 13,2 9,2 8 4 N 42
25.08.2019 07:00:00 13,2 8,4 4 2 O 0
25.08.2019 06:00:00 13,2 7,3 4 2 N 0
25.08.2019 05:00:00 13,2 6,1 4 2 N 0
25.08.2019 04:00:00 13,3 5,9 8 4 SSO 0
25.08.2019 03:00:00 13,4 6,0 9 5 ESE 0
25.08.2019 02:00:00 13,1 6,3 11 6 ESE 0
25.08.2019 01:00:00 12,1 8,6 15 8 E 0
25.08.2019 00:00:00 12,3 8,4 26 14 ESE 0
24.08.2019 23:00:00 12,7 7,4 34 18 ESE 0
24.08.2019 22:00:00 13,1 7,5 24 13 ESE 0
24.08.2019 21:00:00 13,2 7,7 26 14 ESE 0
24.08.2019 20:00:00 14,1 9,8 21 11 E 0
24.08.2019 19:00:00 14,2 8,9 28 15 E 0
24.08.2019 18:00:00 18,0 10,2 18 10 N 0
24.08.2019 17:00:00 18,1 9,6 11 6 NO 0
24.08.2019 16:00:00 18,0 9,6 5 3 N 6
24.08.2019 15:00:00 17,4 8,3 4 2 N 0
24.08.2019 14:00:00 17,4 8,1 9 5 - 0
24.08.2019 13:00:00 17,2 7,5 5 3 N 18
24.08.2019 12:00:00 16,7 7,3 8 4 N 60
24.08.2019 11:00:00 16,1 7,3 9 5 - 36
24.08.2019 10:00:00 15,0 6,4 4 2 N 48
24.08.2019 09:00:00 14,0 6,0 8 4 N 48
24.08.2019 08:00:00 13,6 5,8 15 8 SE 42
24.08.2019 07:00:00 13,8 5,5 13 7 SE 0
24.08.2019 06:00:00 13,8 5,8 13 7 SSE 0
24.08.2019 05:00:00 14,0 5,1 11 6 SE 0
24.08.2019 04:00:00 13,9 5,6 8 4 SSO 0
24.08.2019 03:00:00 13,9 6,2 11 6 SE 0
24.08.2019 02:00:00 13,8 6,2 13 7 ESE 0
24.08.2019 01:00:00 14,0 5,9 8 4 SSE 0
24.08.2019 00:00:00 13,3 6,7 16 9 SE 0
23.08.2019 23:00:00 13,5 6,1 21 11 ESE 0
23.08.2019 22:00:00 12,9 7,0 24 13 ESE 0
23.08.2019 21:00:00 12,8 7,6 28 15 ESE 0
23.08.2019 20:00:00 12,5 8,1 34 18 ESE 18
23.08.2019 19:00:00 12,8 8,2 31 17 ESE 0
23.08.2019 18:00:00 13,6 8,2 31 17 ESE 0
23.08.2019 17:00:00 15,2 9,9 29 16 ESE 0
23.08.2019 16:00:00 15,7 9,4 24 13 ESE 12
23.08.2019 15:00:00 15,3 7,9 28 15 SE 18
23.08.2019 14:00:00 14,7 7,4 15 8 SE 24
23.08.2019 13:00:00 14,0 8,2 28 15 SE 0
23.08.2019 12:00:00 13,5 8,7 34 18 ESE 0
23.08.2019 11:00:00 13,9 8,9 29 16 ESE 0
23.08.2019 10:00:00 - - - - - -
23.08.2019 09:00:00 14,1 7,0 18 10 E 0
23.08.2019 08:00:00 13,8 8,9 21 11 SE 0
23.08.2019 07:00:00 14,7 11,9 26 14 ESE 0
23.08.2019 06:00:00 15,1 11,4 29 16 ESE 0
23.08.2019 05:00:00 15,1 11,8 18 10 SE 0
23.08.2019 04:00:00 15,1 12,0 16 9 SSE 0
23.08.2019 03:00:00 15,1 11,9 21 11 SSE 0
23.08.2019 02:00:00 15,1 11,3 21 11 SSE 0
23.08.2019 01:00:00 14,9 10,7 28 15 SE 0
23.08.2019 00:00:00 15,1 9,1 31 17 SE 0
22.08.2019 23:00:00 15,1 10,1 29 16 ESE 0
22.08.2019 22:00:00 17,9 12,8 26 14 ESE 0
22.08.2019 21:00:00 18,5 13,7 18 10 ESE 0
22.08.2019 20:00:00 19,9 14,4 15 8 NO 0
22.08.2019 19:00:00 20,4 13,4 15 8 O 12
22.08.2019 18:00:00 20,4 13,1 11 6 N 36
22.08.2019 17:00:00 20,6 13,3 9 5 - 24
22.08.2019 16:00:00 20,5 13,2 5 3 N 12
22.08.2019 15:00:00 20,0 13,0 13 7 N 24
22.08.2019 14:00:00 19,7 12,4 8 4 N 6
22.08.2019 13:00:00 20,0 12,3 9 5 N 12
22.08.2019 12:00:00 18,5 11,3 5 3 N 12
22.08.2019 11:00:00 17,8 12,1 15 8 SE 36
22.08.2019 10:00:00 16,9 12,0 22 12 SE 54
22.08.2019 09:00:00 16,2 12,5 21 11 ESE 24
22.08.2019 08:00:00 15,7 12,2 13 7 SE 48
22.08.2019 07:00:00 15,8 11,7 15 8 SE 0
22.08.2019 06:00:00 16,0 11,4 16 9 SE 0
22.08.2019 05:00:00 16,3 11,5 15 8 SE 0
22.08.2019 04:00:00 16,7 10,7 16 9 SE 0
22.08.2019 03:00:00 16,7 10,5 16 9 SSE 0
22.08.2019 02:00:00 17,0 11,1 15 8 SE 0
22.08.2019 01:00:00 17,7 10,7 22 12 ESE 0
22.08.2019 00:00:00 18,2 11,6 16 9 E 0
21.08.2019 23:00:00 18,5 11,6 11 6 ESE 0
21.08.2019 22:00:00 18,6 11,5 4 2 N 0
21.08.2019 21:00:00 19,3 12,4 8 4 E 0
21.08.2019 20:00:00 20,8 12,9 11 6 N 54
21.08.2019 19:00:00 21,2 12,3 11 6 O 42
21.08.2019 18:00:00 22,1 12,5 15 8 N 12
21.08.2019 17:00:00 22,5 12,5 13 7 N 42
21.08.2019 16:00:00 22,0 12,4 15 8 ONO 42
21.08.2019 15:00:00 21,7 11,5 11 6 N 30
21.08.2019 14:00:00 20,9 11,1 11 6 N 30
21.08.2019 13:00:00 20,9 11,2 9 5 N 12
21.08.2019 12:00:00 19,9 10,9 8 4 N 24
21.08.2019 11:00:00 19,2 10,0 5 3 N 60
21.08.2019 10:00:00 17,6 9,4 5 3 N 60
21.08.2019 09:00:00 16,7 9,6 4 2 N 60
21.08.2019 08:00:00 16,4 9,3 4 2 N 60
21.08.2019 07:00:00 16,7 9,4 5 3 ONO 0
21.08.2019 06:00:00 16,9 9,0 4 2 O 0
21.08.2019 05:00:00 17,0 9,2 4 2 OSO 0
21.08.2019 04:00:00 17,0 9,3 5 3 SSE 0
21.08.2019 03:00:00 17,1 9,0 8 4 ESE 0
21.08.2019 02:00:00 17,4 9,1 8 4 SE 0
21.08.2019 01:00:00 17,7 9,1 13 7 NNO 0
21.08.2019 00:00:00 18,4 10,1 18 10 NNO 0
20.08.2019 23:00:00 18,9 10,5 13 7 NNO 0
20.08.2019 22:00:00 19,2 11,1 8 4 NNO 0
20.08.2019 21:00:00 19,5 11,3 11 6 NNO 0
20.08.2019 20:00:00 21,6 12,2 16 9 NO 60
20.08.2019 19:00:00 22,9 11,8 13 7 N 54
20.08.2019 18:00:00 23,7 11,9 8 4 N 42
20.08.2019 17:00:00 23,4 11,6 11 6 N 48
20.08.2019 16:00:00 23,1 11,2 15 8 N 42
20.08.2019 15:00:00 22,6 11,5 9 5 N 36
20.08.2019 14:00:00 22,4 11,4 5 3 SSO 24
20.08.2019 13:00:00 22,9 10,8 5 3 N 36
20.08.2019 12:00:00 23,8 8,8 5 3 N 60

tt = Temperatura
td = dewpoint
ff = velocità del vento
dd = direzione del vento
sd = ore di luce

Stazioni seguenti

WeatherPro
AMSI
MeteoEarth